EHI
0 0 0 0 0 0 0 0 0 0 0 0 1 1 0 0 0 0 2 12 32 42 36 32 37 42 43 41 43 42 34 22 12 5 1 0 0 0 0 0 0 0 0 0 0 0 0 0 0
0 0 0 0 0 0 0 0 0 0 0 2 4 4 2 1 1 2 7 20 39 46 39 34 39 44 43 41 40 37 29 18 9 3 0 0 0 0 0 0 0 0 0 0 0 0 0 0 0
0 0 0 0 0 0 0 0 0 1 2 6 11 9 6 4 4 8 17 33 48 50 40 37 43 45 41 38 34 28 20 10 3 1 0 0 0 0 0 0 0 0 0 0 0 0 0 0 0
0 0 0 0 0 0 0 0 2 2 4 11 16 14 10 9 12 21 34 45 52 50 42 41 45 43 38 34 28 20 12 4 1 0 0 0 0 0 0 0 0 0 0 0 0 0 0 0 0
0 0 0 0 0 0 0 1 4 7 11 17 20 18 15 18 26 40 48 50 52 52 48 47 46 41 35 30 23 15 8 2 0 0 0 0 0 0 0 0 0 0 0 0 0 0 0 0 0
0 0 0 0 0 0 0 2 6 15 23 26 26 23 19 25 41 53 54 49 51 57 56 51 44 37 31 24 17 11 6 1 0 0 0 0 0 0 0 0 0 0 0 0 0 0 0 0 0
0 0 0 0 0 0 0 2 10 24 32 34 34 28 23 30 46 57 56 51 53 59 59 51 41 33 25 18 12 7 3 1 0 0 0 0 0 0 0 0 0 0 0 0 0 0 0 0 0
0 0 0 0 0 0 0 3 14 27 36 39 38 30 28 37 51 58 57 55 56 57 53 46 40 32 23 15 10 5 1 0 0 0 0 0 0 0 0 0 0 0 0 0 0 0 0 0 0
0 0 0 0 0 0 1 7 17 30 40 43 41 36 39 50 59 60 57 55 54 51 43 37 35 31 24 15 11 8 4 1 0 0 0 0 0 0 0 0 0 0 0 0 0 0 0 0 0
0 0 0 0 0 0 2 7 19 33 43 46 47 50 56 61 63 60 55 50 47 42 34 27 27 30 25 16 12 11 8 2 0 0 0 0 0 0 0 0 0 0 0 0 0 0 0 0 0
0 0 0 0 0 0 1 6 18 32 40 46 53 62 65 63 60 56 49 42 37 33 26 19 21 26 22 14 10 10 8 3 0 0 0 0 0 0 0 0 0 0 0 0 0 0 0 0 0
0 0 0 0 0 0 0 4 14 25 32 43 58 65 63 59 56 50 41 31 26 23 18 14 16 20 16 9 7 6 5 2 0 0 0 0 0 0 0 0 0 0 0 0 0 0 0 0 0
0 0 0 0 0 0 1 5 10 18 29 45 60 62 57 53 49 42 31 22 18 14 10 9 12 14 12 7 4 4 3 1 0 0 0 0 0 0 0 0 0 0 0 0 0 0 0 0 0
0 0 0 0 0 0 2 4 9 18 32 48 59 56 49 45 41 34 24 17 12 8 6 6 8 9 9 6 3 2 2 1 0 0 0 0 0 0 0 0 0 0 0 0 0 0 0 0 0
0 0 0 0 0 0 1 2 8 20 34 47 53 51 44 38 34 29 22 14 8 5 4 5 5 5 5 3 1 1 1 0 0 0 0 0 0 0 0 0 0 0 0 0 0 0 0 0 0
0 0 0 0 0 0 0 2 8 19 31 40 44 42 38 34 30 25 19 12 6 3 3 3 4 4 3 1 0 0 0 0 0 0 0 0 0 0 0 0 0 0 0 0 0 0 0 0 0
0 0 0 0 0 0 0 2 7 16 25 31 33 32 31 30 27 24 19 12 6 3 1 1 2 3 2 1 0 0 0 0 0 0 0 0 0 0 0 0 0 0 0 0 0 0 0 0 0
0 0 0 0 0 0 1 2 6 13 21 25 26 25 23 23 23 21 18 12 7 4 2 1 2 2 1 1 0 0 0 0 0 0 0 0 0 0 0 0 0 0 0 0 0 0 0 0 0
0 0 0 0 0 0 1 2 5 12 18 22 22 20 17 15 14 14 14 12 10 7 4 3 3 2 2 1 1 1 1 0 0 0 0 0 0 0 0 0 0 0 0 0 0 0 0 0 0
0 0 0 0 0 0 0 1 4 8 14 18 18 16 13 9 7 8 9 11 13 11 7 5 5 5 4 2 1 1 1 0 0 0 0 0 0 0 0 0 0 0 0 0 0 0 0 0 0
0 0 0 0 0 0 0 0 1 3 7 11 12 12 11 8 7 7 9 11 13 12 10 8 7 6 5 3 1 1 0 0 0 0 0 0 0 0 0 0 0 0 0 0 0 0 0 0 0
0 0 0 0 0 0 0 0 0 1 3 5 7 8 9 8 9 10 11 11 11 12 12 10 8 7 6 4 2 1 0 0 0 0 0 0 0 0 0 0 0 0 0 0 0 0 0 0 0
0 0 0 0 0 0 0 0 0 0 1 2 4 6 7 8 10 11 12 10 10 10 11 10 8 6 5 4 2 1 0 0 0 0 0 0 0 0 0 0 0 0 0 0 0 0 0 0 0
0 0 0 0 0 0 0 0 0 0 0 0 2 4 5 5 8 11 11 10 9 9 9 8 7 5 4 3 2 1 0 0 0 0 0 0 0 0 0 0 0 0 0 0 0 0 0 0 0
0 0 0 0 0 0 0 0 0 0 0 0 0 2 2 3 6 9 11 11 10 9 8 7 6 4 3 3 2 0 0 0 0 0 0 0 0 0 0 0 0 0 0 0 0 0 0 0 0
0 0 0 0 0 0 0 0 0 0 0 0 0 0 1 1 3 6 10 12 11 10 8 7 5 4 4 3 2 1 0 0 0 0 0 0 0 0 0 0 0 0 0 0 0 0 0 0 0
0 0 0 0 0 0 0 0 0 0 0 0 0 0 0 0 1 4 8 10 10 9 8 7 6 5 4 4 3 1 0 0 0 0 0 0 0 0 0 0 0 0 0 0 0 0 0 0 0
0 0 0 0 0 0 0 0 0 0 0 0 0 0 0 0 0 1 4 6 7 8 9 9 8 6 6 6 5 3 2 1 0 0 0 0 0 0 0 0 0 0 0 0 0 0 0 0 0
0 0 0 0 0 0 0 0 0 0 0 0 0 0 0 0 0 0 2 5 7 10 10 10 9 7 6 6 6 6 4 3 1 0 0 0 0 0 0 0 0 0 0 0 0 0 0 0 0
0 0 0 0 0 0 0 0 0 0 0 0 0 0 0 0 0 1 2 5 9 11 11 10 9 7 6 6 6 6 6 4 2 1 0 0 0 0 0 0 0 0 0 0 0 0 0 0 0
Wind_Speed
4 3 2 1 2 3 3 4 2 1 1 2 3 3 5 5 5 3 2 10 15 15 12 15 17 17 17 16 16 16 16 15 15 14 14 13 13 12 12 11 11 11 11 10 10 11 10 10 11
3 3 1 2 3 1 4 3 3 3 3 3 3 2 2 1 2 5 5 9 16 15 11 13 18 18 17 16 16 15 15 15 14 14 13 13 12 11 11 11 11 11 10 10 10 11 10 10 10
2 1 3 3 1 3 4 3 3 1 3 2 2 2 1 2 4 5 6 13 14 12 10 13 20 18 17 16 16 15 15 14 14 13 12 12 11 11 10 10 10 10 10 10 10 10 10 10 10
2 3 3 3 3 5 5 4 3 3 1 1 3 2 2 1 3 6 12 15 14 11 10 13 19 18 17 16 16 15 14 14 13 12 11 11 10 10 10 9 9 9 9 9 9 9 9 9 9
3 3 3 2 5 6 5 5 5 4 3 3 4 3 1 3 5 12 14 15 14 11 8 12 19 18 17 16 16 15 14 13 13 12 11 10 10 9 9 9 8 8 8 8 8 8 8 8 8
3 4 3 3 6 5 3 3 5 4 3 3 4 3 0 2 9 12 12 11 12 12 9 10 18 18 17 16 15 15 14 13 12 12 11 10 9 9 8 8 8 7 7 7 7 7 7 7 6
3 3 1 3 5 5 2 2 5 4 4 4 5 4 1 3 7 10 10 9 9 10 9 7 9 12 16 16 15 14 13 12 12 11 10 9 9 8 7 7 6 6 6 6 6 5 5 5 5
4 4 1 3 4 5 2 2 3 4 3 3 5 6 5 6 8 8 8 8 8 7 7 6 6 6 7 8 14 14 13 12 11 10 10 9 8 7 7 5 5 5 5 5 5 4 4 4 4
4 3 3 5 4 5 2 2 2 3 4 2 1 3 5 14 13 11 9 7 8 8 5 6 6 6 6 6 10 11 12 11 10 8 9 6 3 3 3 4 4 5 4 3 3 3 3 3 3
4 3 7 6 5 4 3 4 5 4 4 2 1 4 12 15 14 14 14 13 11 10 7 5 6 6 6 6 5 4 4 4 4 3 4 3 3 2 2 1 3 4 3 2 2 1 2 3 2
6 7 6 6 6 4 3 3 4 7 4 7 8 11 15 15 13 13 13 12 11 9 8 6 6 6 5 3 4 3 2 3 3 4 4 3 3 2 1 1 1 1 2 1 2 2 2 2 1
5 8 7 6 3 2 3 3 3 5 6 6 10 15 16 15 14 14 14 12 9 9 8 7 6 6 5 4 4 3 3 3 2 3 4 3 2 2 1 1 1 1 1 1 1 1 2 2 2
5 6 5 6 5 3 2 2 3 2 2 8 12 14 14 14 12 10 9 9 9 9 8 7 7 6 5 4 4 4 3 3 3 3 3 3 3 2 2 1 1 1 1 1 1 1 1 2 2
4 5 6 5 3 1 2 1 2 2 6 10 13 13 12 12 12 10 9 10 9 9 9 7 7 6 5 4 3 4 3 3 3 3 3 4 3 3 3 2 2 1 1 1 1 1 2 1 1
3 5 7 3 1 0 2 1 2 3 8 10 11 11 11 10 10 12 12 10 9 8 7 8 7 6 6 5 4 4 4 4 3 3 3 4 4 4 3 3 2 1 1 2 2 2 2 2 2
3 4 5 7 2 1 1 5 3 4 8 8 9 10 9 8 10 9 9 8 7 8 8 8 8 8 6 5 5 4 4 4 3 3 3 4 4 4 4 3 2 2 2 2 2 2 2 2 2
5 4 6 8 2 0 1 6 2 3 6 7 7 8 8 7 8 8 9 9 8 8 8 8 6 7 7 5 4 4 4 4 3 3 3 3 4 4 4 3 2 2 2 2 2 2 2 2 1
4 5 6 7 5 1 2 5 2 3 5 6 6 6 7 8 9 9 9 9 9 8 7 7 6 6 7 5 4 3 4 3 3 3 3 4 4 4 4 3 3 3 3 2 2 3 3 2 1
4 4 9 9 5 1 4 5 3 3 4 5 5 5 6 7 5 6 7 8 9 8 7 7 7 7 7 5 5 4 3 3 2 2 4 4 4 5 4 4 3 3 3 2 2 2 3 2 1
4 5 7 7 3 1 2 4 2 3 5 6 7 7 7 6 5 6 6 7 9 10 9 8 8 8 8 5 4 3 4 3 2 2 3 4 5 5 5 5 3 3 3 3 2 2 2 2 2
4 4 6 6 4 3 2 5 3 1 2 2 3 4 5 7 8 8 8 8 8 10 11 10 9 9 8 7 5 4 4 3 2 2 2 2 4 4 5 5 4 4 3 3 2 2 3 2 2
6 4 4 3 1 4 2 4 5 2 3 3 4 4 6 6 7 8 8 8 9 10 9 9 9 8 8 9 8 9 6 5 4 3 3 3 3 4 5 5 5 4 3 3 2 2 2 3 2
6 1 2 1 1 2 3 1 7 2 3 5 5 6 6 7 8 8 8 8 7 8 8 8 9 8 8 9 10 9 6 4 3 3 4 3 2 3 4 5 5 4 3 3 3 2 2 2 3
3 4 5 5 5 2 2 1 7 4 5 4 4 5 6 7 8 7 7 6 6 6 7 8 9 8 8 9 9 9 9 7 7 6 5 4 2 2 4 5 4 4 4 4 3 3 3 2 3
4 5 4 5 5 5 2 2 9 7 5 5 5 5 5 6 8 7 7 8 7 8 8 8 9 8 9 9 9 9 9 9 9 7 7 6 4 3 5 5 5 4 4 4 4 3 3 3 3
5 9 7 4 5 5 3 5 8 5 4 4 3 4 4 5 7 8 8 8 8 9 9 9 9 8 9 9 8 8 8 6 6 7 6 7 5 5 6 6 6 5 5 5 4 3 3 2 2
6 4 6 7 2 2 5 7 9 2 2 0 1 2 3 5 6 7 7 7 8 8 9 10 9 9 9 9 8 7 7 7 7 7 6 5 5 5 6 7 6 6 6 6 5 3 4 3 3
4 8 6 6 5 3 5 5 5 5 3 1 0 1 3 3 4 5 6 7 7 7 7 8 9 9 8 8 8 7 7 7 7 6 7 7 6 6 7 7 7 7 7 6 6 4 4 4 3
4 4 5 5 5 6 4 8 7 7 4 3 2 2 3 4 5 5 5 6 6 6 7 7 8 8 8 8 8 7 7 7 7 7 7 7 6 7 7 7 7 8 8 7 6 6 6 6 4
5 7 8 6 5 5 4 10 5 4 3 2 1 1 2 4 4 4 4 5 5 6 6 7 7 8 8 8 8 8 7 7 7 7 7 6 7 7 7 7 7 8 8 8 8 8 7 7 7
Wind_Direction
185 154 143 125 61 42 275 257 242 240 217 210 162 162 165 164 172 198 136 144 139 145 151 151 149 145 141 137 134 132 129 127 126 126 126 126 127 128 128 128 126 123 120 117 113 110 110 111 115
135 150 133 69 78 6 280 248 233 227 178 126 106 96 97 105 74 112 135 147 142 145 148 151 151 148 144 141 139 136 132 131 129 128 129 129 129 130 129 127 125 124 121 118 114 112 110 112 115
141 155 87 69 107 212 260 245 222 164 145 144 119 92 119 157 141 148 156 145 139 143 146 155 153 150 148 145 142 139 136 134 133 133 133 132 130 130 128 127 126 125 123 121 116 114 112 112 116
111 59 56 61 260 241 236 241 180 151 156 144 132 114 81 47 157 152 145 144 140 143 148 157 154 152 150 148 146 143 142 140 137 137 137 135 133 131 128 127 125 123 123 121 119 116 114 114 116
68 79 52 339 266 257 241 220 177 171 188 165 143 143 75 3 118 136 144 147 145 143 148 157 155 154 153 152 150 148 147 145 143 141 140 138 135 134 133 131 128 126 124 121 120 119 115 113 115
65 68 68 290 278 274 265 192 158 164 165 144 141 139 41 102 134 142 143 146 147 146 146 152 157 155 155 155 155 152 151 148 147 146 145 145 141 139 139 139 137 135 132 127 123 121 117 111 112
115 107 202 257 280 287 265 146 153 158 165 177 151 136 137 150 149 140 135 136 140 142 142 146 154 156 158 158 157 155 154 152 151 151 151 150 147 144 143 143 141 139 139 136 133 128 120 114 111
139 109 275 265 259 270 243 134 149 150 168 139 137 157 184 170 146 129 125 127 130 134 139 139 141 143 148 156 160 159 158 157 157 157 158 156 152 149 147 146 150 147 148 147 143 136 126 114 108
112 81 249 240 235 258 220 164 137 128 123 129 144 169 158 140 142 137 135 136 144 149 148 142 142 139 140 149 164 161 161 162 158 160 161 146 111 106 129 157 163 159 159 156 150 145 129 105 94
119 175 235 225 221 242 246 202 167 144 141 154 96 99 130 143 152 157 160 161 162 167 167 153 150 144 143 156 147 140 141 142 132 121 124 109 104 109 128 172 165 156 153 146 126 117 99 85 69
175 211 245 257 241 234 236 213 169 154 188 200 183 154 149 155 163 170 171 171 169 166 168 163 156 147 146 139 134 124 115 117 116 121 121 115 107 99 86 66 50 53 84 55 48 54 59 75 97
199 244 241 269 253 221 212 176 163 179 215 184 159 151 157 166 173 177 177 173 166 167 172 164 155 149 151 138 135 130 127 128 129 134 135 129 123 121 115 104 90 70 60 69 53 54 58 64 85
224 263 256 253 272 243 186 170 162 209 171 122 135 149 164 171 173 173 171 169 168 173 172 171 160 156 150 139 147 145 142 142 141 136 142 142 140 141 130 113 102 97 87 89 80 72 73 68 67
256 271 286 284 276 210 144 167 120 212 136 135 148 163 172 175 174 170 174 177 179 179 174 169 166 158 150 151 149 144 144 138 135 139 146 144 142 143 134 116 106 92 90 98 97 91 90 72 70
306 320 324 322 335 277 117 333 223 178 147 153 164 171 175 173 176 181 182 180 178 178 173 172 168 159 157 157 156 145 142 139 137 137 142 142 140 142 133 123 116 102 94 94 80 72 69 76 70
6 20 334 304 309 301 145 267 243 156 158 165 172 176 179 180 184 186 179 171 174 174 174 178 177 164 163 157 150 140 138 136 135 135 135 135 135 135 127 125 124 114 97 91 90 73 70 60 62
25 353 302 303 294 300 184 253 250 164 170 176 177 181 181 180 189 189 177 171 174 179 173 173 168 160 158 149 141 134 131 131 131 131 129 129 130 130 124 121 117 113 98 87 92 67 80 81 70
304 308 296 293 290 297 253 258 258 188 186 190 184 181 182 191 198 191 182 177 173 174 170 167 158 153 144 133 120 108 109 115 121 131 137 135 133 130 120 114 112 110 102 87 80 82 66 70 64
246 266 282 281 289 234 248 264 254 201 194 203 200 193 195 202 191 178 182 180 172 171 174 167 162 155 149 146 146 142 146 144 135 142 144 143 139 135 128 120 114 112 110 113 112 101 80 55 41
238 280 287 299 345 40 291 293 267 194 206 210 207 205 202 184 167 175 176 174 179 180 184 177 172 166 165 163 154 143 137 136 134 132 137 148 144 143 140 135 133 126 112 96 92 110 106 60 41
274 242 262 277 322 22 2 325 310 295 248 235 222 212 204 192 187 185 186 185 183 186 186 185 183 177 169 155 132 114 96 87 106 132 149 161 155 150 142 146 142 141 131 125 120 123 125 118 55
272 252 240 270 347 315 12 296 295 296 294 246 229 211 209 202 193 190 190 189 191 190 185 181 177 172 166 160 160 159 159 163 180 172 167 160 160 157 152 150 148 145 139 141 145 128 126 130 126
227 358 65 43 126 352 353 272 290 312 279 259 235 219 211 200 195 192 194 193 188 181 179 174 172 174 170 171 170 165 161 157 145 148 156 160 162 166 160 155 152 151 149 150 141 125 121 126 141
160 66 48 51 65 334 286 210 283 251 236 257 238 221 210 198 192 191 186 177 173 171 172 172 172 176 174 174 173 172 168 162 157 165 171 171 165 171 173 163 163 162 159 159 156 144 131 124 123
115 89 20 353 3 263 276 241 254 254 236 228 232 223 214 200 190 185 179 177 178 172 171 171 173 175 175 176 179 180 176 172 175 176 178 173 174 186 191 174 173 173 174 166 155 152 151 146 139
178 146 161 204 233 278 312 249 257 258 262 241 213 198 191 195 196 192 189 184 183 178 173 171 177 179 176 181 184 182 178 176 180 179 177 184 188 191 183 181 183 183 175 169 162 158 167 162 161
146 174 162 136 160 285 287 287 300 283 292 235 151 148 178 198 196 193 187 183 183 182 178 178 179 180 181 182 179 180 179 180 182 181 182 186 189 187 183 184 186 188 182 175 167 174 180 173 179
147 143 109 125 149 252 287 279 259 276 277 278 190 181 194 184 183 183 184 185 184 184 177 174 178 183 182 180 183 184 184 187 185 178 185 191 191 187 181 188 191 191 189 183 177 179 184 181 188
129 120 118 121 151 166 243 268 231 228 231 227 232 200 185 178 181 184 187 183 176 169 170 174 177 179 180 181 183 180 182 184 181 186 194 194 190 187 191 195 195 195 194 188 187 194 188 194 201
172 169 150 155 202 180 187 263 266 225 222 193 216 205 172 171 169 166 163 158 161 170 175 180 180 183 185 182 180 181 176 176 183 193 197 193 194 195 199 198 199 201 198 192 194 201 199 200 207